Find Starlink 31104

NORAD ID: 58672 Int'l Des: 2023-211 Owner: SPXS Country: US Constellation: starlink operational
LEOCIRCULAR

現在のビュー

3D地球を読み込み中...

About Starlink 31104

Starlink 31104 (NORAD 58672) is a starlink constellation satellite (v2 mini) launched Dec 29, 2023 by SPXS of US. It operates in LEO, CIRCULAR orbit with a mass of 730.00 kg.

Starlink 31104について

説明を読み込み中...

次回通過

Passes for default location (London). Set your location on the main map for personalized predictions.

高度履歴

Loading altitude history...

軌道要素

1 58672U 23211F 26177.46226298 .00064087 00000-0 97232-3 0 9990
2 58672 42.9895 174.9788 0021004 114.1099 246.1962 15.53487696140563
Epoch: Jun 26, 2026 • Age: 18 hours

現在のステータス

高度 423.1 km
速度 7.65 km/s
衛星直下点 -35.30°S, 48.04°E
打ち上げ日 Dec 29, 2023
運用期間 2.4 years
タイプ internet

技術仕様

分類 Payload
質量 730.00 kg
乾燥質量 700.00 kg
総質量 730.00 kg
長さ 0.30 m
直径 4.10 m
スパン 29.00 m
形状 Box + pan
製造者 SPXS
バスタイプ Starlink V2M
フェーズステータス In Orbit
所有者/国 SPXS/US

Most Searched